Theta_e
316 315 316 316 318 324 327 328 329 328 327 324 325 322 320 324 323 321 320 318 318 320 320 321 322 323 323 322 322 323 323 325 325 328 328 325 322 319 322 324 323 321 320 318 315 316 316 316 316 316 317 318 319 319 320 321 323 325 327 329 329 329 329 329 330 330 330 330 330 331 331 331 332 332 332 331 331 331 331 331 330 331 332 332 333 334 335 335 335 335 334 334 334 333 333 331 330
317 315 317 319 321 327 331 329 328 327 325 322 324 323 322 322 321 320 319 319 320 319 320 320 321 322 323 323 322 322 323 323 322 323 322 320 319 318 318 319 318 318 318 317 315 314 315 314 314 314 314 314 314 314 314 315 316 317 320 322 323 324 325 326 327 328 329 329 330 330 330 329 329 330 329 329 329 329 329 328 328 328 329 329 330 331 332 333 334 335 334 335 334 333 334 333 331
318 317 322 325 325 329 331 329 327 325 323 321 322 323 323 321 320 321 321 320 320 320 320 320 320 321 321 322 321 321 323 322 321 320 318 319 319 316 315 315 315 316 315 315 315 314 314 314 314 314 313 313 313 313 313 313 313 313 313 314 315 316 317 318 319 321 322 323 324 325 325 325 325 326 326 326 326 326 326 326 326 325 325 326 328 329 329 330 330 332 333 334 333 333 333 332 330
320 319 326 330 329 329 330 330 329 325 323 321 320 323 323 322 321 321 321 320 320 319 319 319 319 320 320 321 321 320 323 322 321 320 318 318 318 316 313 313 314 314 314 314 314 314 313 313 313 312 312 312 312 312 312 312 312 312 312 312 312 312 312 312 312 313 314 314 315 316 316 316 317 317 318 318 318 319 319 319 319 319 320 321 324 326 327 328 328 329 330 331 331 331 330 329 329
322 323 327 331 332 330 329 330 330 327 325 322 320 323 322 322 322 321 320 319 319 319 319 319 319 320 319 320 320 321 323 322 321 320 319 318 318 316 313 313 314 314 314 314 313 313 312 312 311 311 311 310 310 310 310 310 310 310 310 310 310 310 310 310 310 310 310 311 311 311 311 311 311 312 312 312 312 312 312 312 312 313 314 315 317 319 320 321 323 324 325 327 328 328 329 329 329
323 324 326 327 329 329 329 327 326 326 326 324 322 322 321 321 322 321 320 319 319 319 319 319 319 319 319 320 320 321 322 322 321 319 318 318 318 316 313 313 314 314 314 314 313 312 311 311 310 310 310 309 310 309 309 309 309 309 309 309 309 309 309 309 309 309 309 309 309 309 309 309 309 309 309 310 310 310 310 310 310 310 311 311 311 312 313 313 314 315 317 319 321 322 324 325 326
323 325 324 324 326 325 326 326 323 323 324 324 322 322 322 321 321 320 319 319 318 318 319 319 319 319 319 320 319 319 320 320 320 318 317 318 318 316 314 314 314 314 314 313 312 311 311 310 310 309 309 309 309 309 309 309 308 309 309 308 308 308 308 308 308 308 307 307 307 307 307 307 307 307 307 307 307 307 307 307 308 308 308 308 309 309 309 310 310 311 311 312 313 314 315 316 318
322 326 325 325 328 325 324 324 322 323 323 323 321 322 322 321 321 321 319 319 318 318 318 318 319 318 319 319 319 319 318 318 318 317 316 316 317 316 314 314 314 314 314 313 312 311 310 310 309 309 309 309 309 308 308 308 308 308 308 308 308 307 307 307 306 306 305 305 305 305 304 304 304 304 304 304 304 304 304 304 304 304 305 305 305 305 306 306 307 307 307 308 308 309 310 310 311
322 326 325 325 327 326 326 325 323 323 324 323 320 321 321 321 321 320 319 319 319 318 318 318 318 317 319 319 318 319 318 318 317 316 316 316 317 316 314 314 314 314 314 313 312 311 310 310 309 309 309 308 308 308 308 307 307 307 307 307 306 305 305 304 304 304 303 303 303 303 303 303 303 303 303 303 303 303 303 303 303 303 303 303 303 303 303 303 303 304 304 304 304 305 306 306 307
323 324 324 325 326 325 325 324 325 324 324 322 321 320 320 321 321 320 320 319 319 318 319 318 318 317 318 319 318 318 318 318 316 316 316 315 316 316 315 314 314 314 314 313 312 311 310 310 309 308 308 307 307 307 307 306 306 306 306 305 304 303 302 302 302 302 302 302 302 302 302 302 302 302 302 302 302 303 303 303 303 303 303 303 303 303 303 303 303 303 303 303 303 303 303 303 304
324 323 322 324 325 323 322 323 325 326 324 321 321 320 320 321 320 320 320 320 319 319 319 318 318 318 317 318 318 319 318 318 317 315 315 315 315 315 315 314 314 314 313 312 311 310 310 309 309 308 307 307 307 307 307 306 306 305 304 303 302 302 301 301 302 302 302 302 302 302 302 302 302 302 302 302 302 302 302 302 302 302 302 302 303 302 303 303 303 303 303 303 303 303 303 303 303
324 326 324 323 323 322 323 324 325 326 325 323 322 320 319 320 320 320 320 320 319 319 318 318 318 318 317 318 318 319 318 318 317 316 315 315 315 314 314 314 314 313 313 312 310 310 310 309 308 308 308 307 307 307 307 306 306 305 304 302 301 301 301 301 301 301 301 301 301 301 302 302 302 302 302 302 302 302 302 302 301 302 302 302 302 302 302 302 302 302 302 302 302 303 303 303 303
322 325 326 326 325 324 325 326 325 326 326 324 322 319 319 320 319 320 319 320 319 319 318 318 318 318 318 318 318 318 318 317 317 316 315 315 315 314 314 314 314 313 312 311 310 310 310 309 308 308 308 307 307 307 307 306 306 306 304 302 301 301 301 301 301 301 301 301 301 301 301 301 301 301 301 301 301 301 301 301 301 301 301 301 301 301 301 301 301 301 302 302 302 302 302 302 302
322 322 324 326 326 325 325 325 325 325 324 322 320 319 319 319 319 319 319 320 319 319 319 318 317 317 317 318 318 318 318 317 317 316 315 314 315 314 314 314 313 312 311 310 310 310 310 309 309 308 308 307 307 307 307 307 306 306 304 302 302 302 302 301 301 301 301 301 301 301 301 301 301 301 301 301 301 301 301 301 301 301 301 301 301 301 301 301 301 301 301 301 301 301 301 302 302
322 322 324 324 324 323 324 325 325 324 323 321 319 318 319 319 319 319 319 319 319 319 319 318 317 317 317 317 318 318 318 317 317 316 315 314 314 314 314 314 313 311 310 310 310 310 310 309 308 308 308 308 308 307 307 306 307 306 304 302 302 302 302 302 302 302 301 301 301 301 301 301 301 301 301 301 301 301 301 301 301 301 301 301 301 301 301 301 301 301 301 301 301 301 301 301 301
320 322 325 324 323 322 324 327 325 324 323 320 318 318 318 318 319 318 319 318 318 318 318 318 317 317 316 317 318 318 318 317 317 315 315 314 314 314 314 314 312 311 310 310 310 310 310 309 309 308 308 308 308 307 307 307 307 305 303 302 302 302 302 302 302 302 302 302 302 302 302 302 302 302 302 302 302 302 301 301 301 301 301 301 301 301 301 301 301 301 301 300 300 300 300 300 300
320 322 325 324 324 323 325 327 324 323 323 319 317 318 318 318 318 317 318 317 317 317 317 317 317 317 316 316 317 317 317 317 316 315 314 314 314 314 314 314 312 311 311 310 310 310 310 309 309 309 308 308 308 307 307 307 307 305 303 302 302 303 303 303 302 303 302 303 303 303 304 304 303 303 303 303 303 302 302 302 302 302 302 302 302 302 301 301 300 300 300 300 300 300 300 300 300
322 324 324 323 324 324 324 325 322 322 322 319 317 317 318 317 317 317 317 316 316 316 316 317 316 316 316 316 315 315 316 316 315 315 314 314 314 314 314 314 313 312 312 311 311 310 310 309 309 309 308 308 307 307 306 306 306 304 302 302 302 302 303 303 303 303 303 303 303 304 304 303 303 303 303 303 303 303 303 303 303 303 303 304 304 303 302 302 301 300 300 300 300 300 300 300 300
322 325 325 324 325 324 322 321 320 320 320 319 318 318 317 317 317 316 316 316 316 315 315 316 316 316 315 315 314 314 314 315 314 314 314 314 314 314 314 314 314 313 313 312 311 311 310 309 309 309 308 308 307 306 306 306 306 304 302 302 302 302 302 302 303 302 303 303 304 304 304 303 303 303 304 304 304 304 304 304 304 304 304 304 304 304 303 303 302 301 300 300 299 300 299 299 299
321 322 324 325 324 322 321 320 320 319 319 318 318 318 317 317 317 315 315 316 316 316 316 315 316 316 315 315 314 314 314 314 314 314 314 313 313 313 313 314 313 314 313 313 312 311 310 310 309 308 308 307 307 306 306 306 306 303 302 302 302 302 302 302 302 302 303 303 304 303 303 303 303 304 304 304 304 304 303 303 303 303 304 304 304 304 303 303 302 301 300 300 299 299 299 299 299
321 321 322 323 321 321 321 319 319 318 318 317 317 318 317 317 317 316 315 316 316 316 316 316 316 316 316 315 315 314 314 314 314 314 313 313 313 313 313 313 313 313 313 313 312 312 311 310 309 308 308 307 306 306 306 306 305 303 301 301 301 302 302 302 302 302 302 303 303 303 303 303 304 304 304 303 303 303 303 303 303 303 303 303 303 303 303 302 302 301 300 299 299 299 299 299 299
321 321 321 321 320 320 319 318 318 317 317 316 316 316 317 317 317 316 315 316 316 317 317 318 317 317 316 316 316 315 314 314 314 314 314 314 313 313 313 312 312 312 312 313 313 312 311 310 310 308 308 307 306 305 305 306 305 303 301 301 301 301 302 302 302 302 302 303 303 303 303 303 303 303 303 303 303 302 302 302 302 302 303 302 303 303 302 302 301 300 299 298 298 298 298 298 298
320 320 320 320 320 319 319 318 317 316 316 315 315 316 316 317 317 316 316 315 316 317 318 318 318 317 317 317 316 316 315 315 315 315 314 314 314 313 313 312 312 312 312 312 312 312 311 311 310 309 307 307 306 305 305 305 304 302 301 301 301 301 301 301 302 301 302 302 302 302 303 303 302 302 302 302 302 302 302 302 302 302 302 302 302 302 302 302 301 300 299 298 297 297 297 297 297
319 319 318 319 319 319 319 318 317 316 315 315 315 315 315 316 316 316 316 316 316 317 317 317 317 317 317 317 316 316 316 316 315 315 315 314 314 313 312 312 312 311 311 311 312 312 312 311 310 309 307 307 306 305 305 305 304 303 301 301 301 301 301 301 301 301 302 302 302 302 302 302 302 302 302 302 302 302 302 302 302 302 302 302 302 302 302 301 300 299 298 297 297 296 296 296 296
318 318 318 318 318 319 318 317 317 316 315 314 315 315 314 315 316 315 316 316 316 316 316 317 316 317 316 316 316 316 315 315 315 315 314 314 313 313 312 311 311 311 311 311 311 311 312 311 311 309 307 307 306 305 305 304 304 303 301 301 301 301 301 301 301 301 301 301 301 301 301 301 301 301 301 301 301 301 301 301 301 302 302 302 302 301 300 300 299 298 297 296 296 296 296 296 296
318 317 318 318 317 317 317 317 316 316 315 314 314 314 314 315 315 315 315 316 316 316 316 317 316 316 315 315 315 315 315 315 315 314 314 313 313 312 312 311 310 310 311 310 311 311 311 311 311 310 308 307 306 305 305 304 304 303 301 301 301 301 301 301 301 301 301 301 301 300 301 301 301 301 301 301 301 301 301 301 301 302 302 301 301 300 300 299 298 297 296 296 296 296 295 296 296
317 316 316 316 316 316 316 317 317 316 315 315 314 314 314 314 315 315 316 316 316 316 316 316 316 316 315 315 314 314 314 314 314 314 313 313 312 312 312 311 311 310 310 310 310 311 311 311 311 310 309 307 306 305 304 304 304 303 302 301 300 300 301 301 301 301 301 300 300 300 300 300 300 300 301 301 301 301 301 301 301 301 301 301 300 300 299 298 297 296 295 295 295 295 295 295 295
316 316 315 315 315 316 316 316 316 316 316 315 314 314 314 314 315 315 316 316 316 316 316 316 316 316 315 315 314 314 314 314 314 313 313 313 313 313 312 312 311 310 310 310 310 310 310 311 310 310 309 307 306 305 304 305 304 303 302 301 300 300 300 300 301 300 300 300 300 300 300 300 300 300 300 300 300 300 300 300 301 301 301 300 300 299 298 297 296 295 295 295 294 295 295 294 295
316 315 315 315 316 316 317 316 316 316 316 315 314 314 314 314 314 315 316 316 316 316 316 316 316 316 316 315 314 314 314 314 313 313 314 314 314 313 313 312 312 310 310 310 309 310 310 310 310 309 309 308 306 305 304 304 304 304 302 301 300 300 300 300 300 300 300 300 300 300 300 299 300 300 300 300 300 300 300 300 300 301 300 299 299 298 296 296 295 294 294 294 294 294 294 294 294
315 315 315 316 316 317 317 317 317 316 315 315 314 315 316 315 315 315 316 316 315 316 315 316 316 316 316 315 314 314 313 313 313 315 315 315 315 314 313 312 312 311 310 310 309 309 309 309 309 309 309 308 307 305 304 304 304 304 302 301 300 300 300 300 300 300 300 300 300 299 299 299 300 300 300 300 300 300 300 300 300 300 299 298 298 296 296 295 294 294 294 294 294 294 294 294 294
315 316 316 317 317 317 318 318 317 316 314 314 314 315 315 316 316 316 317 317 315 315 315 315 316 316 315 315 314 314 314 314 314 315 316 315 315 314 313 312 311 311 310 310 309 309 309 309 309 308 308 309 307 305 304 304 304 304 302 301 300 299 300 300 300 300 300 300 300 299 299 299 299 300 300 300 299 299 300 300 300 300 299 298 297 296 295 294 294 294 293 293 294 294 294 293 293
316 317 318 320 318 318 319 317 316 316 314 313 315 315 315 315 316 317 317 317 316 315 315 315 315 315 315 315 315 314 314 314 314 315 315 315 315 314 314 313 312 311 310 310 309 309 309 309 308 308 308 308 308 306 304 304 304 303 302 301 300 299 299 300 300 300 300 300 300 299 299 299 299 299 299 299 299 299 299 299 299 299 299 298 296 295 295 294 294 293 293 293 293 293 293 293 293
318 318 318 321 319 319 320 317 315 315 314 313 314 316 316 316 316 317 317 317 316 315 315 315 315 315 315 315 315 314 314 313 313 313 314 314 314 314 314 313 312 312 311 310 309 309 309 308 308 308 308 308 308 306 305 304 303 303 301 301 299 299 299 299 300 300 299 300 300 299 299 299 299 299 299 299 299 299 299 299 299 299 298 297 296 295 294 294 293 293 293 292 292 293 293 293 293
320 320 319 320 320 319 320 318 315 315 315 314 314 314 315 315 316 316 316 316 316 314 315 316 316 315 315 315 315 315 314 313 313 313 313 313 313 313 313 312 312 311 311 309 309 309 309 308 308 308 308 308 307 306 305 303 303 302 301 300 299 299 299 299 299 299 299 299 299 299 299 298 299 299 299 299 299 299 299 299 299 299 298 297 295 295 294 293 293 292 292 292 292 292 293 293 293
319 320 318 318 319 318 319 318 316 315 316 315 314 314 314 314 315 315 316 316 315 314 315 316 316 316 315 315 315 315 315 314 314 313 312 313 313 312 312 312 311 311 310 309 308 308 308 308 307 307 307 307 306 306 305 303 302 302 301 300 299 298 299 299 299 299 299 299 299 299 298 298 298 298 298 298 298 299 299 299 299 298 297 296 295 294 293 292 292 292 292 292 292 292 292 292 293
317 318 318 318 318 317 318 318 316 315 316 315 314 314 314 314 315 315 315 316 315 315 315 315 315 315 315 315 315 315 315 315 315 314 313 312 312 312 312 311 311 310 309 308 308 307 307 307 307 306 306 306 306 305 304 302 302 301 301 300 299 298 298 298 299 299 299 299 299 299 298 298 298 298 298 298 298 298 298 298 298 298 297 296 295 294 293 292 292 292 292 292 292 293 292 292 292
318 318 318 318 318 317 317 318 317 315 315 316 315 315 315 315 316 315 315 316 316 315 314 314 315 315 315 315 315 315 315 315 315 314 313 312 312 311 311 311 310 309 308 307 307 306 306 307 307 307 306 306 306 305 305 303 302 302 301 300 299 299 298 298 298 298 298 298 299 298 297 297 298 298 298 298 298 298 298 298 298 297 296 295 294 293 292 292 292 292 292 292 292 292 292 292 291
318 319 319 318 318 317 316 318 317 314 315 316 316 316 315 315 316 315 315 316 315 315 314 315 315 315 315 315 315 315 315 315 315 314 313 312 311 311 310 310 309 308 307 307 307 307 307 307 307 307 306 306 306 306 305 304 303 302 302 301 300 299 298 298 298 298 298 298 298 298 297 297 297 298 298 298 298 298 298 298 297 297 296 295 294 293 292 292 291 291 292 292 292 292 292 291 291
320 320 320 319 317 317 317 318 316 313 314 316 316 315 315 315 316 315 315 315 315 315 315 315 315 315 315 315 315 315 316 315 315 314 313 312 312 311 310 309 309 308 307 307 307 307 307 307 307 306 306 306 306 306 305 304 303 302 302 301 299 298 298 298 298 298 298 298 298 297 296 297 297 297 297 297 297 297 297 297 297 297 296 295 294 292 292 291 291 291 291 291 291 291 291 291 290
319 319 318 317 317 318 317 317 315 312 313 315 316 315 314 314 315 315 315 315 315 316 316 316 316 316 315 316 316 316 316 316 315 314 313 312 312 310 309 309 308 307 307 307 307 307 307 307 307 307 306 306 305 305 304 304 302 301 300 299 298 297 297 297 297 297 298 298 298 297 296 296 297 297 297 297 297 297 297 297 297 296 295 294 293 292 291 291 291 291 291 291 291 291 291 290 290
319 321 318 316 317 318 317 318 317 315 314 314 315 315 315 315 315 315 315 315 315 315 315 316 316 316 316 315 316 316 317 317 315 313 313 313 312 311 310 309 308 307 307 307 308 308 307 307 307 307 306 305 305 304 304 303 302 300 299 298 296 296 296 296 297 297 298 298 297 297 296 296 296 297 297 297 297 297 297 297 296 296 295 293 292 291 291 291 290 290 291 291 291 290 290 290 289
317 321 320 317 317 317 317 320 321 321 320 315 315 316 317 318 318 316 317 318 317 315 315 315 315 315 316 315 316 316 316 317 315 314 314 313 313 311 309 308 308 307 308 308 308 308 308 307 307 306 306 305 304 304 303 302 302 301 300 299 298 297 297 297 297 298 298 298 297 296 296 296 296 296 296 297 297 297 297 297 296 296 294 293 292 291 290 290 290 290 290 291 291 290 289 289 289
315 322 326 320 318 320 322 322 322 325 324 317 316 319 318 318 318 318 319 320 319 317 316 316 314 315 315 315 315 315 315 316 315 314 314 313 312 311 310 309 308 309 309 308 307 307 307 307 307 306 306 305 304 303 303 302 301 301 300 300 299 299 298 298 298 298 298 297 297 296 296 296 296 296 296 296 297 296 296 296 296 295 293 292 291 291 290 290 290 290 290 290 290 290 289 288 288
318 325 328 322 320 323 323 323 324 324 321 317 318 320 318 317 316 318 320 319 319 317 317 316 314 314 314 315 315 314 315 316 315 314 313 312 312 311 311 310 310 310 309 308 308 308 308 307 307 306 305 305 304 303 302 301 301 301 300 300 299 298 298 298 298 297 297 296 296 296 296 296 295 296 296 296 296 296 296 296 296 294 293 292 291 290 290 290 290 290 290 290 290 290 289 288 288
320 322 322 320 320 321 320 321 322 321 318 319 320 320 319 318 316 318 318 317 317 316 316 317 315 313 314 314 315 314 314 316 315 314 313 313 312 312 311 311 311 311 310 309 309 309 308 308 307 306 306 305 304 303 302 301 301 300 300 300 299 298 297 297 297 296 296 296 296 296 296 295 295 295 296 296 296 296 296 296 295 294 292 291 291 290 290 290 290 290 290 290 290 289 289 288 288
320 320 319 319 319 317 317 318 319 318 317 318 321 320 318 317 318 318 317 316 316 315 316 316 314 313 314 314 315 315 315 315 315 314 314 313 313 312 311 311 311 311 310 310 309 309 308 308 307 307 306 305 304 303 302 301 300 300 299 299 298 297 296 296 295 295 295 296 296 296 295 295 295 295 295 295 295 295 295 295 294 293 292 291 290 290 290 290 290 290 290 290 290 289 288 288 287
317 318 318 319 319 316 316 316 316 317 318 317 319 319 317 317 319 319 317 316 316 316 315 315 314 313 314 315 315 315 315 316 316 314 314 313 312 311 311 311 311 311 310 310 309 309 309 308 308 307 306 305 304 303 302 301 300 300 299 299 298 297 296 296 295 295 296 296 296 296 295 295 295 295 295 295 295 295 295 295 293 292 291 291 290 290 290 290 290 290 290 290 289 289 288 287 287
316 318 316 318 320 319 318 316 316 318 318 319 320 319 317 318 319 318 316 316 316 316 315 315 316 315 314 315 315 316 316 316 316 314 313 312 311 311 311 311 312 311 310 310 310 310 309 308 308 307 306 305 305 304 303 302 301 300 299 298 298 297 296 296 296 296 296 296 296 296 295 294 294 294 295 295 295 295 295 294 293 292 291 290 290 290 290 290 290 290 289 289 289 288 288 287 287
317 319 316 319 320 320 320 320 321 320 318 320 322 319 318 317 316 316 317 317 316 316 315 314 316 315 314 316 316 316 317 316 316 314 313 312 311 312 312 312 312 312 312 311 311 311 310 309 308 308 308 307 306 305 304 303 302 301 299 298 297 297 296 296 296 296 296 296 296 295 295 294 294 294 295 295 295 295 294 293 292 291 291 290 290 290 290 290 290 289 289 289 289 288 287 287 287
315 317 318 321 321 319 320 322 324 322 319 319 319 320 321 318 317 318 317 316 316 315 314 314 315 315 315 316 317 317 317 316 315 314 313 312 313 313 313 313 313 313 312 312 311 311 310 309 309 309 309 308 307 306 305 304 303 302 300 299 297 296 296 295 295 295 295 295 295 295 295 294 294 294 294 294 294 294 294 293 292 291 290 290 290 290 290 290 289 289 289 289 289 288 287 287 287
312 315 318 320 320 318 318 321 321 320 321 319 317 322 323 317 318 321 317 316 314 313 315 315 315 316 315 316 318 317 316 315 314 313 312 313 313 314 314 313 313 313 313 312 311 311 311 310 310 310 310 309 308 307 306 306 305 303 301 299 298 296 296 295 295 295 295 295 295 295 294 294 294 294 294 294 294 293 293 292 291 290 290 290 290 289 290 290 289 289 289 289 288 288 287 287 287
315 315 317 317 319 318 317 320 319 318 320 319 317 322 321 315 317 319 316 317 315 313 314 313 314 315 315 317 318 317 316 315 314 313 312 313 313 313 313 313 313 313 313 312 312 311 311 311 311 310 310 310 309 308 308 307 306 305 302 300 298 297 296 295 295 294 294 294 295 294 294 294 293 294 293 293 293 293 292 291 291 290 290 289 289 289 290 289 289 289 289 289 288 287 287 287 286
316 316 318 318 319 319 318 320 319 317 319 318 317 319 317 314 316 316 315 317 316 314 314 313 313 314 315 316 317 316 316 315 314 313 313 313 313 313 313 313 313 313 313 312 312 312 312 312 311 311 310 309 308 308 308 308 307 306 304 301 299 297 296 295 295 294 294 294 294 294 293 293 293 293 293 293 293 292 292 291 290 290 289 289 289 289 289 289 289 289 289 288 287 287 286 286 286
318 319 318 318 320 320 318 319 320 320 319 318 316 316 315 315 317 317 315 315 315 315 315 314 313 313 313 314 315 315 315 314 314 313 312 313 313 313 313 312 313 313 313 313 313 312 312 311 311 311 310 310 310 309 309 308 307 307 305 303 301 299 297 296 295 294 294 294 294 294 293 293 293 293 293 293 292 292 291 290 290 289 289 289 289 289 289 289 289 289 288 288 287 287 286 286 286
315 316 316 317 319 320 319 318 319 320 318 317 316 316 314 314 315 315 316 315 314 314 314 314 314 314 313 313 314 314 314 313 313 312 312 313 313 313 313 313 312 312 312 313 312 312 312 311 311 311 310 310 309 309 308 308 307 307 306 305 303 300 298 296 295 294 294 294 294 294 293 293 293 292 292 292 292 291 291 290 290 289 289 289 289 289 289 289 289 289 288 288 287 286 286 286 286
312 311 313 314 316 318 319 318 317 318 316 316 316 316 315 315 315 315 316 315 314 314 314 315 315 314 312 313 314 314 313 313 313 312 312 312 312 313 313 313 312 312 312 312 312 312 312 311 311 310 310 309 308 308 308 307 307 307 306 304 303 301 299 297 295 294 294 294 293 293 293 292 292 292 292 292 292 291 290 290 289 289 289 289 289 289 289 289 289 288 288 287 287 286 286 286 286
313 312 314 313 313 315 317 317 317 317 316 315 316 315 315 315 316 318 318 315 314 314 315 316 315 312 312 314 314 313 314 314 313 313 312 312 312 312 312 312 312 311 311 311 311 311 311 311 311 311 310 308 308 307 307 307 307 306 305 304 303 301 299 297 295 294 294 293 293 293 293 292 292 292 292 292 291 291 290 289 289 289 289 289 289 289 289 289 288 288 287 287 286 286 286 286 286
314 313 313 313 314 315 315 316 316 316 316 315 316 316 315 314 316 318 316 315 315 315 316 317 314 311 312 314 313 313 314 313 313 313 312 312 312 312 312 312 312 311 311 310 310 310 310 310 310 311 310 309 309 308 308 307 306 305 305 304 302 300 299 297 296 294 294 293 293 293 292 292 291 291 291 291 291 290 290 289 289 289 289 289 289 288 288 288 288 287 287 286 286 286 286 286 285
Wind_Speed
5 4 3 2 3 2 1 1 2 3 2 4 6 3 2 4 4 3 3 4 1 3 6 4 5 6 4 3 4 6 8 4 1 2 2 2 10 20 18 16 15 12 10 9 12 11 9 8 6 5 5 5 6 5 4 4 4 4 4 5 5 6 6 6 7 7 7 8 8 7 8 8 8 8 9 9 10 10 9 9 9 9 8 8 8 7 7 7 7 8 8 9 10 12 12 13 13
4 4 4 1 3 2 2 2 2 3 3 5 5 1 4 4 3 3 4 4 4 7 8 4 4 4 1 3 4 3 8 7 3 4 4 7 15 18 16 16 15 13 12 12 13 9 7 6 5 3 3 3 3 2 3 3 4 4 5 6 6 7 8 8 8 9 9 9 9 9 10 10 10 11 12 12 12 12 11 11 11 10 10 10 10 10 10 10 9 9 9 9 10 12 13 13 14
4 6 7 3 1 1 4 1 2 3 3 4 1 2 4 3 4 3 5 8 10 10 7 5 3 1 2 3 2 2 4 6 3 4 8 12 16 16 14 14 14 13 13 13 11 7 6 5 3 2 2 1 1 1 2 3 4 4 5 5 6 7 7 8 8 9 9 10 10 10 11 11 12 12 13 13 13 13 13 13 13 12 12 11 11 12 12 12 13 12 12 12 13 14 14 15 16
3 5 7 1 4 3 3 2 3 3 5 4 1 1 3 4 6 7 10 12 11 9 6 4 2 1 2 3 1 1 5 6 2 2 9 14 13 14 14 13 13 12 12 13 9 7 5 4 3 2 1 1 1 0 0 1 2 3 3 4 4 5 5 6 6 7 7 8 9 9 10 11 11 12 12 13 13 13 13 14 14 14 13 13 13 13 13 13 14 14 15 16 17 17 17 18 18
3 3 6 4 2 2 2 2 3 3 5 4 1 1 2 4 8 8 9 11 8 7 6 4 2 1 5 5 2 1 5 5 2 3 7 11 12 15 15 14 14 12 13 13 9 6 4 3 2 1 1 2 2 3 3 3 4 4 4 4 4 4 5 5 5 6 6 6 6 7 8 8 9 9 10 10 11 11 12 12 12 12 12 13 13 14 14 15 15 16 16 17 18 18 18 19 19
4 3 3 2 3 4 2 2 4 5 5 4 2 3 3 5 10 11 10 10 7 6 6 5 2 2 3 5 4 3 5 4 3 3 6 9 11 16 16 15 15 14 14 12 8 5 3 1 1 1 2 3 3 4 5 5 5 5 6 5 6 6 6 6 6 6 6 6 6 6 7 7 8 8 9 10 10 11 11 11 12 12 12 12 12 13 14 15 16 16 17 18 18 18 18 19 19
4 3 0 2 4 3 2 4 5 5 3 3 3 3 3 8 13 13 10 6 5 4 7 5 3 2 1 4 5 7 7 8 7 4 4 7 11 15 17 17 16 15 14 9 6 4 2 0 0 1 1 2 2 3 4 4 4 4 5 5 6 6 6 6 7 7 7 7 7 7 7 7 8 8 9 10 10 11 11 12 12 12 12 13 13 13 14 15 16 16 17 18 18 18 19 19 19
4 2 1 1 2 2 3 5 5 6 2 1 2 4 4 11 14 10 7 5 4 5 8 7 5 2 2 4 3 7 10 13 14 11 7 6 11 16 17 17 15 15 11 8 6 3 2 2 2 1 1 2 2 2 2 2 2 3 4 4 5 6 6 7 7 7 8 8 8 8 8 8 8 8 9 9 10 10 11 11 12 12 12 13 13 14 15 15 16 16 17 18 18 18 18 19 19
3 1 1 1 3 2 4 5 6 8 4 3 5 3 3 10 12 8 6 5 5 7 11 11 9 4 2 5 4 6 10 12 14 15 12 9 12 16 17 17 15 13 11 8 7 4 4 5 4 4 4 3 3 2 1 1 1 2 4 4 5 5 6 6 7 7 7 8 8 8 8 7 7 7 7 7 8 8 9 9 10 10 11 11 12 13 14 15 16 17 17 18 19 19 19 19 20
1 4 2 0 3 3 5 5 5 4 2 4 5 4 4 7 9 8 8 6 7 8 10 13 11 8 3 3 5 7 10 10 11 13 13 12 14 17 18 18 15 13 12 11 9 7 8 8 7 6 5 4 3 2 1 1 2 3 4 4 5 5 5 5 5 6 6 6 6 6 6 6 6 5 5 5 5 6 6 7 7 8 9 9 10 11 11 12 14 15 16 17 18 19 20 20 20
3 6 3 2 3 4 5 4 4 1 4 3 4 6 5 6 6 6 8 6 10 9 10 12 8 12 9 5 6 9 11 9 10 11 11 14 16 18 19 18 16 16 14 12 11 10 10 10 8 6 4 3 3 2 1 2 3 4 4 4 4 4 4 4 4 4 4 4 4 4 4 4 4 4 4 5 5 5 6 6 7 8 8 8 9 10 10 11 12 13 13 14 15 17 18 19 19
3 4 3 2 4 4 5 5 6 4 3 2 4 8 6 6 5 5 7 6 10 10 12 14 6 9 9 6 8 11 13 11 12 13 12 14 17 19 20 19 18 17 15 14 13 12 12 11 8 6 4 4 3 3 3 3 4 5 6 5 5 5 4 4 3 3 2 2 2 2 3 3 4 4 5 5 6 7 7 8 8 9 10 10 10 11 11 12 12 13 13 13 14 14 15 16 17
4 3 1 3 4 4 6 5 5 6 3 2 4 10 8 7 7 6 7 7 10 9 11 15 7 5 6 4 7 12 14 13 14 14 12 14 17 20 20 21 20 18 17 16 14 13 13 11 8 7 6 5 4 4 4 5 6 6 6 6 6 5 4 4 3 3 2 2 3 3 3 4 5 6 6 7 8 9 10 10 11 12 12 13 13 14 14 14 15 15 15 15 15 15 15 15 15
6 5 2 2 4 4 5 5 4 5 3 2 7 10 8 6 7 8 7 6 7 5 6 13 9 4 5 4 5 13 15 15 17 15 13 15 18 20 21 21 20 19 18 17 16 15 14 12 10 8 7 6 5 4 4 5 6 6 6 6 5 5 4 4 3 3 3 3 3 4 5 6 7 7 8 9 10 10 11 12 13 14 14 15 16 16 17 17 17 17 17 17 17 17 16 16 16
7 6 3 3 4 5 5 4 4 3 2 3 5 6 6 5 6 7 8 6 3 3 5 10 12 5 3 5 5 12 16 15 16 14 14 16 18 20 21 21 21 20 19 19 17 16 15 13 11 10 9 8 7 6 5 5 5 6 6 5 5 5 5 4 4 4 4 5 5 6 6 6 7 8 9 10 11 12 12 13 14 14 15 16 16 17 17 18 18 18 18 18 18 18 18 18 17
7 5 2 3 4 5 3 3 1 2 1 3 5 5 4 6 8 7 8 7 2 4 8 10 14 9 4 5 5 10 13 13 12 12 15 17 19 20 21 21 21 21 21 21 19 18 16 15 14 13 12 11 9 7 7 6 6 6 5 5 5 5 5 6 6 6 6 6 6 7 7 7 8 9 9 10 11 12 12 13 14 15 15 16 17 17 17 18 18 18 18 18 18 17 17 17 16
4 2 2 3 5 5 2 2 1 1 1 4 6 6 4 4 8 10 10 11 7 6 10 10 14 15 11 11 10 11 12 13 12 12 15 16 19 20 21 23 23 24 24 23 22 20 19 18 17 16 15 13 11 9 9 8 7 6 6 6 6 6 6 6 7 7 7 7 7 7 7 7 7 8 9 9 10 11 11 12 13 14 14 15 16 16 17 17 17 17 17 17 17 16 16 16 16
4 2 3 4 5 5 1 2 3 2 2 2 6 7 4 3 6 9 8 11 14 12 12 13 13 15 17 18 16 17 17 17 17 16 16 17 19 20 22 23 25 26 26 26 25 23 22 21 20 19 17 14 13 11 10 9 8 8 8 8 8 8 8 8 8 8 8 7 7 6 6 5 5 5 5 6 7 8 8 9 10 11 12 12 13 14 14 14 15 15 15 15 15 15 15 15 15
6 3 3 5 5 4 2 4 4 3 4 4 2 6 6 5 5 8 5 7 14 12 13 15 15 16 20 22 21 23 22 22 22 20 19 19 20 21 22 24 26 27 27 27 27 26 24 23 23 21 19 17 15 13 12 11 10 10 10 11 10 10 9 9 9 9 8 8 7 6 5 4 3 3 3 3 3 4 5 6 7 8 9 10 11 12 13 14 14 14 14 14 14 14 15 15 15
8 5 3 6 3 5 7 6 4 3 5 6 7 4 6 8 6 7 5 7 10 11 13 15 18 23 24 25 25 26 26 26 26 24 23 22 22 22 23 24 26 27 27 28 28 28 27 25 24 23 20 18 16 15 14 13 12 12 13 13 12 12 11 10 10 10 9 8 7 6 5 4 3 3 3 3 3 4 5 6 7 8 9 10 12 13 15 15 16 16 15 15 15 15 15 15 15
6 6 4 7 4 4 6 5 2 2 2 4 9 7 5 9 9 8 7 6 7 12 18 19 24 27 26 28 28 28 28 28 29 28 27 26 24 24 25 25 26 26 27 28 29 29 28 27 25 24 21 20 19 17 16 16 15 15 15 15 15 14 13 12 11 11 10 9 8 7 6 5 5 4 4 5 5 6 7 8 8 9 10 12 13 15 16 17 17 17 17 16 16 16 16 17 17
4 7 10 14 11 5 3 3 2 4 4 6 8 7 8 9 10 13 12 8 9 12 15 18 23 26 25 27 27 28 29 28 29 29 29 28 27 26 26 27 27 28 29 30 30 30 30 29 27 25 22 22 21 19 18 18 17 17 18 17 16 15 14 13 13 12 12 10 9 8 7 6 6 6 6 7 7 7 8 9 9 10 12 13 15 16 17 18 19 19 18 17 17 17 17 17 18
4 8 13 18 17 9 6 5 5 7 6 7 7 8 10 8 10 14 17 20 22 17 12 13 15 18 20 24 26 28 28 28 27 27 27 28 28 27 27 28 29 29 30 30 30 30 31 30 28 26 24 24 22 21 21 20 19 20 20 19 18 17 15 15 14 13 12 11 10 9 9 8 8 8 8 8 8 8 8 9 10 11 12 14 16 17 19 19 20 19 19 18 18 17 17 16 17
6 6 11 17 16 11 11 9 9 10 9 11 10 8 9 10 9 12 21 28 29 25 20 19 18 16 17 20 24 26 27 26 27 26 25 26 26 26 26 28 29 30 30 31 31 31 31 31 30 27 26 26 24 24 23 21 22 22 21 20 20 18 17 16 15 14 14 12 12 11 10 10 9 9 9 9 9 9 9 9 10 12 13 15 17 18 19 20 20 19 19 19 18 18 17 17 17
8 8 12 13 11 10 12 12 13 13 13 13 11 11 13 16 12 14 27 31 27 24 22 23 24 22 21 22 24 26 27 27 27 27 26 27 26 26 28 29 30 31 32 32 32 32 30 30 31 29 28 27 27 26 24 23 24 23 22 22 21 19 18 17 16 16 15 14 13 12 11 10 10 9 9 9 9 9 9 10 11 12 14 15 17 18 19 20 20 20 20 19 19 19 19 19 18
5 7 11 10 11 13 14 15 16 14 14 12 10 12 17 20 13 16 33 35 28 27 24 24 24 24 24 25 27 28 29 31 30 30 29 28 28 29 30 31 32 33 33 33 34 33 31 31 31 31 30 29 28 27 26 26 26 24 23 23 21 20 19 18 18 17 16 15 14 13 12 11 10 10 9 9 9 9 9 10 11 12 14 16 17 19 20 21 21 21 20 21 21 21 21 21 21
6 9 11 13 16 20 19 19 19 16 15 15 12 10 15 16 8 12 28 25 20 24 26 27 25 26 27 26 27 30 31 32 32 32 31 30 30 32 33 33 34 35 35 35 35 34 33 32 31 32 32 30 30 29 28 28 26 25 25 24 22 21 20 19 19 18 17 16 15 14 13 12 11 10 10 9 9 9 9 10 11 13 14 16 18 19 20 21 21 21 21 22 23 23 24 24 24
9 9 11 14 18 22 23 20 21 17 11 17 16 8 12 10 6 17 31 20 12 17 21 25 27 28 29 27 27 29 31 31 31 31 32 34 33 33 34 34 35 36 37 37 36 35 34 33 32 32 33 32 31 31 30 29 27 26 26 25 24 23 21 21 20 19 18 17 16 15 14 13 11 11 10 10 9 9 10 10 12 13 14 16 18 19 20 21 21 22 22 23 23 24 24 25 25
8 6 7 12 13 16 20 20 21 16 7 13 13 4 10 9 13 29 38 27 18 16 17 21 25 28 29 29 28 29 31 30 30 33 34 34 33 33 35 34 34 36 37 37 36 36 35 35 34 33 34 34 33 32 32 30 29 28 27 26 25 24 23 22 21 20 19 18 17 16 15 14 12 11 11 10 10 10 10 11 12 13 15 16 18 19 21 21 21 22 22 23 23 24 25 25 26
7 6 5 9 9 9 17 20 19 15 7 14 12 2 8 9 21 33 32 26 23 20 21 22 23 26 29 30 30 31 32 32 33 34 34 33 32 33 34 34 34 35 37 37 37 37 36 36 35 35 35 35 34 34 33 32 30 29 28 28 26 25 24 23 22 21 20 19 18 17 16 15 13 12 11 11 10 10 10 11 13 14 15 17 18 20 21 21 21 22 22 23 24 24 25 26 27
4 5 5 5 4 6 10 9 13 11 7 17 12 4 8 8 17 25 24 23 23 23 24 24 24 26 29 30 31 33 34 35 36 35 35 34 33 33 34 34 34 35 37 38 38 38 37 36 36 36 36 36 35 35 34 33 31 30 29 29 27 26 26 25 24 22 21 20 18 17 17 16 14 13 12 11 11 10 10 12 13 15 16 17 18 20 20 21 21 21 22 23 24 25 26 26 28
3 3 4 5 4 7 6 3 14 11 6 15 11 4 9 10 14 14 19 23 22 23 24 23 26 27 29 31 33 34 35 36 37 36 37 36 35 34 35 35 34 36 37 38 39 38 38 37 37 37 37 37 36 36 35 34 32 31 30 30 28 28 28 26 25 23 22 21 19 19 18 17 15 13 12 11 10 10 11 12 14 15 16 17 18 19 20 20 20 21 22 23 25 26 26 27 28
4 5 6 6 6 8 5 3 11 10 6 11 12 5 7 7 7 5 11 21 22 21 21 22 24 26 28 31 33 35 35 36 38 38 38 38 37 36 35 36 35 35 36 38 39 39 39 39 38 38 38 36 37 37 36 35 34 32 32 31 30 30 29 27 26 24 23 22 20 20 19 18 16 14 12 11 11 11 12 13 15 15 16 17 18 19 20 20 20 21 22 23 25 26 27 28 29
4 5 6 7 8 8 5 2 6 8 6 7 11 9 12 9 6 6 9 17 21 21 20 21 24 25 29 31 32 34 34 36 39 40 39 39 38 37 36 36 36 35 36 38 39 39 39 39 38 38 38 37 37 38 37 36 35 33 33 32 31 31 29 28 27 25 24 23 22 21 20 19 17 15 13 12 12 12 13 14 15 16 17 18 18 19 19 19 20 21 22 23 24 26 27 29 31
5 6 5 6 7 7 8 4 3 9 6 7 8 10 16 14 10 15 18 18 21 22 21 24 28 29 32 34 33 32 33 37 40 39 37 38 37 36 37 37 37 37 37 38 39 39 39 39 39 38 38 38 37 38 38 37 36 34 34 33 32 32 31 30 28 27 25 24 23 22 21 20 18 16 14 13 13 13 14 14 15 16 17 18 19 19 18 19 20 21 22 23 24 26 28 30 32
10 10 8 7 7 7 12 9 4 10 7 7 11 12 15 15 12 15 24 26 24 24 24 26 30 31 34 36 34 32 33 38 39 36 35 35 35 35 36 37 37 38 38 39 39 39 40 39 39 38 38 38 38 39 39 39 38 36 36 35 34 33 32 31 29 28 27 26 25 23 22 21 19 17 16 15 14 14 14 15 16 17 17 18 18 18 18 18 19 21 22 24 25 26 28 31 33
12 11 9 9 8 9 13 10 4 9 6 8 13 13 13 16 13 12 21 25 21 21 21 23 28 30 35 36 34 33 35 37 35 33 32 30 30 33 35 36 37 37 38 39 39 40 40 39 39 39 39 39 39 40 41 41 40 39 38 37 36 35 33 32 31 30 29 28 26 24 23 22 20 18 17 15 14 14 14 15 16 17 18 18 18 18 18 18 19 21 22 24 26 27 29 30 33
12 9 8 8 7 10 13 9 4 8 5 7 10 11 13 15 14 13 18 18 16 20 19 22 29 31 36 36 33 35 34 32 30 30 29 25 27 31 34 36 37 38 39 39 39 39 39 39 39 39 39 40 41 41 41 42 41 40 37 36 36 35 34 34 32 31 30 29 27 25 24 23 21 19 17 16 15 14 14 15 16 18 18 18 18 17 18 18 19 21 23 24 26 28 29 30 33
9 6 5 7 8 10 11 6 3 4 3 5 8 9 11 13 14 14 16 15 19 27 26 29 34 32 35 35 33 32 27 25 28 28 28 24 26 30 32 35 37 38 38 38 38 37 38 39 39 39 39 40 41 41 42 42 41 39 37 35 35 35 35 34 33 32 31 30 28 26 25 24 22 20 18 16 15 14 15 16 17 18 19 18 18 17 18 18 20 21 23 25 26 27 29 30 31
7 6 5 8 10 8 7 4 3 4 4 6 7 8 8 11 15 15 20 25 27 32 33 36 40 36 38 39 34 28 22 23 28 28 27 25 26 30 32 35 36 37 38 38 38 38 38 39 39 39 39 40 41 42 42 42 40 38 36 35 35 35 35 35 35 34 33 31 28 27 26 25 23 21 19 17 16 15 16 16 18 19 19 18 17 17 18 18 20 21 22 24 26 28 29 30 31
7 7 7 11 12 11 10 6 3 4 6 4 4 9 8 10 15 14 16 22 23 27 28 30 38 40 40 40 34 28 24 25 28 28 27 26 27 29 31 33 35 36 37 38 38 38 38 38 38 39 39 40 41 42 42 42 40 39 38 38 38 38 37 37 37 36 34 32 29 28 27 26 24 22 20 18 17 17 17 17 18 19 19 18 18 17 18 18 20 21 22 23 25 28 30 31 32
8 7 12 16 15 13 12 10 5 3 5 2 0 7 7 8 13 13 9 9 12 16 17 20 31 36 36 38 35 29 25 25 27 28 27 26 26 28 30 32 33 34 35 35 36 36 37 37 38 38 39 40 41 42 42 42 42 43 42 42 43 42 41 41 39 37 35 33 31 29 28 27 25 23 21 20 19 18 18 18 18 19 19 18 18 18 18 19 20 21 22 24 26 28 30 31 33
8 4 8 12 12 11 11 9 5 3 4 2 3 2 8 7 8 9 6 7 9 10 10 15 25 29 31 34 36 30 23 24 27 27 27 27 26 27 29 30 31 31 31 33 34 35 36 36 37 37 38 39 40 41 43 43 44 44 44 45 45 44 43 42 39 37 35 32 31 30 29 28 26 24 22 21 20 19 19 19 19 19 18 17 18 18 19 20 21 21 23 24 26 27 29 31 33
7 1 1 3 4 6 6 5 5 4 3 3 4 4 9 13 7 9 9 8 9 9 9 12 19 26 29 31 35 31 24 24 27 28 28 28 26 26 27 26 26 27 28 31 32 33 33 34 35 36 37 38 39 41 42 44 45 45 45 45 45 44 43 41 38 37 36 34 32 31 30 29 27 25 24 23 22 20 20 19 19 19 18 18 18 19 20 21 21 22 23 25 26 28 29 30 32
4 0 2 2 2 2 1 2 5 3 4 4 5 7 6 14 5 9 11 10 10 11 11 12 16 24 27 28 32 31 27 27 28 29 28 27 26 26 24 23 23 26 27 29 29 29 30 31 33 34 35 37 39 40 42 44 45 45 45 45 45 44 43 41 39 38 38 36 34 33 31 30 28 27 25 24 23 21 20 20 20 19 18 18 19 20 21 21 22 23 24 25 27 28 29 30 31
4 2 3 5 2 1 2 2 2 3 5 7 7 8 6 14 6 8 8 10 11 11 11 12 16 23 26 25 27 26 27 28 28 28 27 25 25 23 22 23 24 25 26 26 27 28 29 31 32 32 34 36 38 39 41 43 44 45 45 46 46 45 44 42 41 40 40 37 35 34 32 31 30 29 27 25 24 22 21 20 20 19 18 19 19 20 21 22 23 24 25 26 28 29 29 29 30
3 3 2 3 1 1 1 3 2 1 10 8 10 14 9 10 5 8 8 10 12 10 9 12 14 19 24 22 21 23 26 28 27 27 25 24 23 22 23 25 25 25 25 26 27 28 29 30 31 31 33 35 37 39 41 42 43 45 46 46 46 46 45 45 44 43 42 39 37 35 34 33 32 30 28 27 25 23 22 21 20 19 19 19 20 21 22 22 23 25 26 27 28 29 29 29 30
2 3 2 1 3 2 3 2 4 2 11 4 12 17 14 11 5 5 7 10 13 11 10 13 11 14 22 24 22 24 26 27 26 25 24 25 25 24 26 27 26 26 27 27 27 28 29 30 30 31 33 35 36 38 40 41 43 44 45 46 46 46 46 47 47 45 43 41 38 36 35 34 33 32 30 28 26 24 22 21 20 19 20 20 21 21 22 23 24 25 26 27 28 28 27 28 29
2 4 4 1 3 2 1 2 3 5 11 4 11 14 12 15 10 3 5 7 11 11 10 14 13 14 22 24 24 25 26 26 26 25 25 26 28 29 30 30 29 29 29 28 28 29 29 30 30 30 31 33 34 36 38 39 41 43 44 46 46 47 47 48 47 46 44 41 38 37 37 36 35 33 31 29 26 24 23 21 20 20 20 20 21 21 22 23 24 26 26 27 27 27 26 27 28
8 6 6 5 3 3 4 4 3 7 9 5 7 11 7 10 8 10 13 11 11 14 17 18 15 16 21 23 26 27 27 27 26 26 26 27 29 30 31 31 31 31 30 29 29 30 30 30 30 30 30 32 33 34 36 37 39 41 43 45 46 48 48 48 48 47 45 42 40 39 38 37 36 34 32 29 27 25 23 21 21 20 20 21 21 22 23 24 25 26 27 28 27 26 26 26 27
9 6 5 6 5 3 4 5 7 7 6 5 3 6 5 4 3 12 17 15 15 19 26 25 19 19 19 19 24 27 27 26 25 26 27 28 30 30 31 31 32 32 31 31 31 30 30 30 30 29 29 31 33 33 34 35 37 39 42 44 46 48 49 49 49 47 45 43 41 40 38 38 36 34 32 29 27 25 23 22 21 21 20 20 21 22 23 25 26 27 27 27 26 25 25 26 26
6 5 4 6 5 4 5 8 9 5 4 6 4 4 6 4 5 10 12 13 14 17 23 21 19 21 19 18 23 26 26 25 24 26 28 30 31 31 31 31 32 33 33 32 32 31 30 30 30 29 29 31 32 33 33 33 35 37 40 44 46 48 49 49 49 48 47 45 42 40 39 38 36 34 32 30 28 25 23 22 21 21 21 21 22 23 24 25 26 27 27 26 25 24 25 26 26
2 4 5 5 3 5 6 8 7 3 5 9 6 7 7 6 10 13 12 12 12 12 14 14 17 22 20 19 23 24 25 25 25 26 28 30 32 32 32 32 34 35 34 34 33 32 31 30 30 30 31 33 34 34 34 33 34 36 39 43 45 48 49 50 50 49 48 46 43 41 39 38 36 35 33 30 28 25 24 23 22 21 21 22 23 24 25 26 27 27 26 25 24 24 25 26 27
4 3 4 1 3 1 2 2 3 3 8 9 9 12 10 8 9 5 8 13 13 12 13 14 17 19 17 19 24 25 26 26 26 25 27 30 32 33 33 33 35 36 35 35 33 33 32 31 32 32 33 34 34 34 36 36 36 36 37 41 44 46 48 50 50 50 49 47 45 43 41 39 37 35 33 31 28 26 25 24 22 22 22 22 23 24 25 26 26 26 25 25 24 25 26 27 27
5 2 3 2 0 2 2 3 2 5 8 7 10 15 12 11 11 6 3 12 14 14 16 17 16 13 13 19 25 26 26 26 26 26 27 30 32 33 34 34 36 37 37 35 34 34 34 33 34 35 35 35 34 35 38 38 38 37 38 40 42 44 47 49 50 50 50 48 46 44 42 40 38 36 34 32 29 28 26 24 23 22 23 23 24 25 26 26 26 25 25 25 24 25 27 28 28
1 3 4 1 2 3 3 3 3 6 8 8 10 12 13 12 9 7 8 12 14 14 15 14 12 12 17 23 27 28 27 27 29 29 29 31 32 33 35 36 37 39 38 36 36 37 36 36 36 38 38 38 38 38 39 41 40 40 40 41 42 44 46 48 50 50 51 49 47 45 42 40 39 37 35 32 30 28 26 24 23 23 24 24 24 25 25 25 25 25 24 24 25 25 27 28 29
3 2 3 3 2 1 1 3 3 5 7 7 7 10 15 10 1 4 8 11 12 12 11 10 9 14 22 27 29 29 28 30 31 30 30 30 31 33 35 37 39 40 38 37 38 39 38 38 39 40 41 41 41 40 40 41 42 43 43 43 44 45 46 48 49 50 51 49 47 45 43 41 39 38 36 33 31 28 26 24 24 24 24 24 25 25 25 25 24 24 24 24 25 26 28 29 29
8 7 8 8 7 4 4 7 7 6 5 6 7 9 15 8 4 2 4 9 11 10 11 10 10 16 23 25 27 27 27 29 29 29 30 29 29 32 34 36 38 41 41 39 39 39 39 40 40 41 43 43 43 42 41 42 43 45 45 46 46 46 47 48 49 50 50 49 48 45 43 42 40 39 36 33 31 28 26 25 24 25 25 25 25 25 24 24 24 24 24 25 26 27 29 30 30
Wind_Direction
193 196 191 186 164 139 127 29 296 236 213 261 256 220 118 75 99 125 121 92 56 122 86 70 63 50 63 26 353 46 55 39 62 136 171 169 168 172 168 166 171 174 172 194 204 184 182 197 192 197 207 220 235 246 263 263 270 278 280 284 285 291 291 294 295 294 294 294 296 298 303 306 305 304 307 309 311 316 319 323 323 322 322 322 321 320 320 317 317 312 307 307 305 307 312 312 310
184 159 112 89 150 133 310 186 241 266 217 248 259 182 114 96 121 156 154 128 76 87 89 96 82 43 355 338 340 2 44 48 85 117 135 152 160 168 174 172 172 176 173 197 206 176 177 192 180 190 196 218 246 264 287 289 294 296 294 293 291 293 291 292 293 291 291 291 290 290 294 298 299 298 301 304 306 309 310 311 310 310 309 308 307 308 309 312 317 313 310 311 306 307 314 316 315
188 156 113 33 296 241 306 228 251 289 267 269 312 88 125 122 123 98 84 98 95 98 101 118 120 25 297 304 323 307 69 73 62 98 128 148 161 169 177 177 173 178 186 204 205 184 189 184 172 180 173 199 267 288 303 312 314 314 311 310 307 305 302 299 297 296 295 295 296 297 299 300 300 299 299 301 302 303 304 305 305 306 305 305 304 303 302 303 303 302 301 304 306 307 310 312 312
169 162 129 44 300 256 268 216 240 278 281 286 40 121 146 123 111 84 77 91 103 114 108 123 125 28 240 247 337 343 122 111 52 94 139 155 173 176 178 179 177 182 195 206 203 197 191 173 181 177 162 154 141 100 26 354 345 342 339 336 334 331 327 322 318 314 311 308 306 305 304 303 301 300 299 299 300 300 301 301 301 302 302 301 301 299 299 298 296 296 296 297 300 302 303 304 305
138 142 133 155 264 276 282 253 253 248 261 288 18 146 110 100 108 95 93 96 102 116 114 138 125 102 216 232 301 32 123 130 171 208 182 179 183 181 183 183 183 188 199 205 198 197 189 172 172 123 85 65 62 57 52 42 35 25 20 13 7 0 352 346 340 335 329 325 321 318 313 311 309 307 307 306 307 306 306 306 306 305 304 302 300 298 296 295 293 293 294 294 296 297 300 301 302
115 91 127 173 272 296 301 266 267 253 255 299 2 110 98 93 107 108 106 95 96 120 135 153 149 117 194 216 234 200 143 165 204 227 220 204 191 186 188 188 190 196 204 206 192 192 187 173 112 63 52 50 45 45 41 33 29 21 19 14 9 4 358 351 344 339 334 330 325 322 319 315 314 312 311 311 311 312 312 313 313 312 311 309 306 304 301 298 297 297 295 294 294 294 295 296 297
112 92 179 260 272 267 267 257 265 270 284 330 7 61 72 101 113 120 122 112 103 141 162 165 173 159 180 181 213 229 212 228 242 266 254 216 200 195 195 196 199 203 210 211 199 200 190 196 320 62 62 63 55 48 41 32 23 17 12 5 1 353 347 341 335 332 326 325 321 319 316 313 311 310 310 311 312 312 313 313 313 312 312 311 309 307 305 303 302 301 300 297 296 296 295 294 293
134 118 241 263 267 189 232 256 257 266 272 50 60 36 53 114 128 135 152 165 149 170 178 174 170 184 240 181 206 241 232 243 247 254 262 234 208 203 201 204 208 212 216 217 220 221 224 253 238 202 160 139 115 91 62 39 21 11 2 355 351 341 335 329 325 321 319 317 315 314 311 309 308 308 309 310 311 312 312 312 312 311 310 309 308 307 305 305 304 303 302 301 300 299 298 297 296
140 255 279 239 270 237 242 246 246 255 221 131 99 84 83 126 144 153 165 160 146 170 177 178 173 164 194 186 207 236 232 242 246 248 248 240 219 208 207 212 215 220 221 222 227 229 238 242 224 203 181 170 160 156 137 59 5 357 351 347 339 334 328 322 319 315 316 315 315 315 313 313 312 312 312 312 313 314 314 315 315 314 314 313 311 310 309 308 308 308 306 306 305 304 303 300 299
243 247 273 338 261 268 260 248 244 251 149 88 88 136 149 143 165 173 175 163 154 165 170 176 184 195 204 190 195 224 238 240 243 246 241 236 224 214 214 218 218 221 224 223 225 226 233 230 215 200 185 180 177 187 207 307 343 344 341 341 335 333 326 322 319 316 316 318 320 321 322 324 326 328 329 330 330 329 329 328 329 328 328 326 324 322 319 318 315 315 314 313 312 311 310 308 305
249 222 245 310 261 261 257 272 290 314 96 91 96 143 166 169 185 191 194 184 163 153 154 164 190 216 228 249 215 227 239 239 245 245 236 230 224 220 219 219 219 221 222 222 222 223 225 221 211 199 192 199 207 235 274 310 333 343 343 341 337 335 331 329 324 323 324 326 331 332 336 339 341 348 350 355 356 355 354 352 350 348 346 344 341 338 334 332 329 326 325 322 321 319 317 316 314
248 218 199 240 252 262 272 304 316 338 71 173 153 148 163 178 200 211 206 202 167 148 163 174 182 206 214 241 227 234 238 239 248 248 240 227 222 223 221 220 222 223 223 224 222 222 224 219 212 207 210 224 237 261 290 317 332 340 343 340 340 341 340 342 343 344 349 357 5 6 5 4 3 4 5 8 8 8 6 5 3 0 358 356 353 351 347 344 341 339 336 334 331 328 326 323 320
245 277 224 239 260 269 289 304 309 325 322 290 123 145 162 179 205 222 219 223 186 165 190 197 187 187 209 217 211 232 238 241 250 253 243 226 224 224 223 223 224 224 224 225 224 225 226 220 215 214 222 233 247 269 295 314 329 334 337 335 335 339 343 347 352 0 8 18 20 19 16 13 12 10 12 13 11 11 9 8 6 3 1 359 358 355 353 350 347 345 342 340 338 337 335 332 328
242 288 299 268 281 279 287 282 286 306 292 24 81 134 159 181 210 224 232 241 208 195 212 206 195 189 237 226 210 231 236 241 250 252 237 226 227 225 226 227 226 225 224 225 225 227 227 221 217 217 224 232 244 260 283 301 315 322 325 325 327 331 335 338 341 350 355 2 2 4 7 6 7 6 6 6 6 6 5 5 2 1 359 356 356 354 352 350 348 346 345 343 341 340 338 338 335
258 296 306 258 284 283 269 257 267 292 294 71 98 139 162 195 206 220 234 239 227 189 158 180 191 179 246 234 217 231 233 240 248 247 231 230 229 226 230 229 227 226 227 228 228 232 232 226 222 220 225 228 233 246 262 280 294 303 306 305 309 314 319 324 326 330 334 342 346 350 354 353 355 355 356 355 356 357 358 359 357 356 354 353 351 350 348 346 346 344 343 342 341 341 340 340 339
267 294 298 256 270 272 249 230 264 282 271 115 140 149 168 213 205 211 228 225 218 195 181 181 199 202 240 243 211 221 229 233 238 237 229 232 231 230 233 229 227 228 228 231 231 234 235 230 225 222 223 224 227 238 249 259 271 279 280 278 284 295 305 312 313 316 318 324 328 329 329 330 339 343 345 347 349 351 353 354 353 353 352 351 349 347 345 343 342 340 339 338 337 337 336 336 334
259 261 251 263 259 264 256 211 169 258 239 124 160 170 180 211 203 218 228 227 231 224 219 215 216 222 237 243 233 229 235 236 234 234 232 233 233 233 233 230 228 229 230 232 231 232 233 230 226 223 222 222 224 231 240 248 254 257 255 251 257 273 284 292 295 297 298 301 304 307 313 321 332 336 338 342 345 348 351 354 356 356 355 353 350 346 343 340 338 336 335 333 332 331 330 329 327
212 200 223 241 248 251 289 335 356 3 328 115 173 186 216 226 188 217 235 232 232 238 239 234 233 237 240 241 242 241 241 243 242 241 239 236 236 236 235 233 232 233 233 233 232 233 232 230 228 225 222 221 223 228 235 239 242 242 239 239 245 258 266 273 276 277 278 280 285 289 296 307 318 326 333 338 346 352 355 1 3 3 0 357 353 348 343 338 333 330 329 328 328 327 326 326 326
211 232 246 245 261 269 304 338 345 354 326 326 239 194 217 247 201 201 228 231 222 231 240 232 230 233 239 240 239 242 243 244 246 246 246 243 241 241 239 237 236 238 238 236 236 235 233 231 230 227 223 222 223 227 232 233 235 234 232 235 242 250 256 261 262 262 263 263 267 271 275 282 296 310 323 336 348 354 354 359 1 359 357 354 351 349 345 340 335 330 325 323 322 323 323 325 326
221 227 262 252 268 318 319 338 334 324 322 318 301 248 208 242 232 185 212 248 223 224 231 220 221 227 233 238 237 240 242 243 246 247 247 248 246 244 243 242 241 243 244 241 239 238 235 233 231 228 224 222 223 226 230 230 230 230 231 234 239 246 251 253 254 253 253 253 255 258 262 269 282 295 304 318 323 326 332 337 342 345 346 348 347 347 346 344 341 336 331 327 324 323 323 324 325
217 205 229 263 278 322 320 355 352 301 310 290 294 289 236 244 243 207 210 255 241 234 235 225 227 233 231 232 238 242 242 242 244 246 247 248 247 244 245 246 246 247 247 244 241 240 237 235 234 231 226 223 224 226 229 230 228 228 231 234 239 244 248 250 250 249 248 248 249 251 257 266 278 288 295 301 310 317 323 329 335 341 344 346 347 347 346 344 342 339 336 333 330 329 329 328 329
238 237 243 263 270 279 305 348 276 261 269 267 276 274 256 251 240 223 213 228 238 235 242 238 235 239 235 233 238 241 242 243 244 246 247 249 249 246 244 245 246 244 245 245 243 242 239 236 236 233 227 224 225 226 228 229 228 229 231 235 240 243 246 247 247 246 244 243 243 246 253 262 270 278 288 294 303 312 318 326 333 338 343 345 345 345 345 344 342 339 337 336 336 335 335 334 334
232 254 249 263 271 273 279 286 261 258 259 248 251 259 260 254 244 235 226 234 244 242 249 259 244 235 236 237 237 236 239 242 245 249 250 251 251 250 245 243 244 244 245 246 245 243 239 237 236 233 227 225 225 225 228 228 228 230 231 236 239 241 243 245 245 243 240 240 242 246 252 260 268 276 284 291 298 307 315 323 329 334 338 341 341 342 342 342 341 338 337 336 336 336 336 336 336
227 264 262 272 282 277 271 277 264 254 249 244 249 268 261 241 245 250 243 244 250 251 252 258 259 247 239 238 236 238 242 244 248 254 255 255 255 255 249 244 244 245 245 245 246 244 241 238 235 233 228 226 225 226 228 227 229 230 232 236 239 240 242 244 244 242 241 241 244 249 255 262 270 277 283 291 298 306 313 319 327 331 335 338 338 339 340 340 338 337 336 335 335 335 335 335 335
223 250 260 271 285 280 273 270 258 250 248 247 250 260 251 242 249 262 256 254 253 252 250 250 255 256 249 245 243 242 244 246 250 252 253 253 252 250 246 241 239 241 243 244 246 246 244 240 235 232 229 227 226 227 228 227 230 231 232 236 238 240 241 243 243 242 243 244 247 251 255 262 268 274 280 288 295 302 310 317 324 330 333 335 336 337 338 337 337 336 334 334 334 336 336 335 335
227 263 278 293 294 287 281 267 251 241 242 238 236 248 250 251 256 265 260 258 257 252 246 245 248 252 249 247 247 246 245 247 249 250 252 252 247 244 242 238 235 238 243 243 245 246 245 243 237 232 230 229 227 227 227 228 230 231 233 237 238 240 241 242 242 243 244 245 249 252 254 260 264 270 277 284 292 300 308 316 324 329 331 332 333 335 336 336 335 334 333 334 335 337 337 337 338
281 298 300 296 287 281 274 267 255 241 237 225 215 240 253 251 237 256 262 261 259 250 243 242 241 245 246 243 244 246 247 249 251 250 249 246 243 243 241 237 235 236 239 241 243 245 244 244 240 233 230 229 227 226 228 229 231 231 234 237 238 239 240 241 242 244 245 247 250 253 256 259 264 270 276 284 292 301 309 319 324 326 328 329 331 332 333 333 333 334 335 337 338 338 339 340 340
280 305 304 284 277 274 262 256 249 238 239 222 212 248 259 243 205 243 257 258 250 239 235 236 233 238 243 242 241 241 245 249 249 246 244 244 244 244 241 239 237 233 236 240 242 243 243 244 241 234 230 229 228 226 228 230 231 231 234 236 237 239 239 240 242 243 245 247 250 254 257 259 263 268 275 284 292 302 309 317 320 321 324 324 326 329 331 332 334 336 337 338 339 339 340 339 340
287 297 298 280 275 271 257 248 236 221 228 211 197 269 260 226 219 245 257 254 244 238 233 232 228 232 239 242 241 239 243 245 243 243 245 247 247 246 244 243 240 234 236 239 239 241 243 243 241 236 231 230 229 228 229 231 231 232 234 235 237 237 238 239 241 242 243 246 250 253 256 258 260 264 271 280 287 297 304 312 315 316 319 320 324 328 330 332 334 334 335 338 339 338 338 338 339
278 257 252 277 285 268 254 247 222 203 198 179 162 259 256 229 225 240 260 253 235 232 232 231 227 230 237 242 243 241 242 240 241 246 248 247 246 246 244 243 241 236 236 237 238 240 242 241 240 237 233 231 230 230 230 231 232 232 234 235 236 236 237 239 239 240 243 245 249 252 254 254 256 260 266 273 281 291 301 308 311 313 316 318 323 327 329 331 332 333 335 337 338 338 338 339 339
251 265 249 254 276 270 264 237 185 178 182 168 157 253 255 263 239 236 253 244 224 222 226 227 226 232 239 243 245 244 243 242 246 250 250 247 244 244 243 241 239 237 234 235 238 239 240 241 240 237 235 232 231 231 231 231 233 233 234 235 234 235 236 238 239 240 242 244 248 251 252 252 253 256 261 268 277 288 299 304 307 310 313 317 322 326 328 329 330 333 337 337 337 338 339 339 337
212 248 260 229 230 262 277 170 168 171 175 173 165 254 250 261 262 251 244 229 212 214 222 224 226 233 241 246 247 246 246 246 248 249 248 246 242 242 242 240 238 237 236 236 236 237 238 239 239 238 236 233 231 232 232 232 233 233 233 234 233 235 236 237 239 241 243 245 247 249 251 251 251 254 258 265 274 285 295 300 304 307 311 316 321 324 325 327 330 334 337 338 337 338 337 336 335
215 200 246 240 236 264 269 183 189 174 132 184 195 235 255 240 244 243 214 209 206 212 219 223 231 236 241 247 248 247 247 246 246 245 244 243 241 241 241 240 238 239 238 236 236 236 238 238 238 238 238 236 232 232 232 232 233 233 233 233 233 234 236 237 239 241 243 245 247 248 250 250 250 251 255 263 272 282 290 296 302 306 309 315 318 321 323 326 330 334 337 337 337 335 334 334 333
241 213 238 240 236 256 256 271 231 187 138 198 211 234 256 248 238 240 208 201 207 214 220 231 244 246 247 251 249 247 246 245 246 245 243 242 242 241 241 240 239 238 237 235 236 237 238 239 238 237 238 236 232 232 233 233 233 233 233 233 233 234 235 237 239 240 242 245 247 248 248 247 247 249 252 260 269 278 287 294 300 305 308 312 315 318 322 327 331 334 334 335 334 334 333 333 332
251 245 259 261 246 250 254 279 213 186 185 216 212 230 250 255 259 259 253 235 221 221 228 242 252 253 255 256 253 251 248 249 252 249 244 242 243 243 241 240 238 236 234 233 234 235 236 237 237 237 237 235 233 232 232 232 233 232 233 233 232 232 234 236 237 239 241 243 245 247 245 244 245 246 250 257 265 275 285 293 299 303 306 309 312 316 322 327 330 331 331 331 331 332 334 335 335
256 264 269 270 270 267 264 274 186 179 200 219 218 231 247 254 249 247 256 254 244 239 236 239 247 249 254 257 256 254 251 253 257 253 246 242 243 244 242 240 238 235 233 232 231 231 233 235 235 236 236 235 233 231 230 230 231 231 231 231 231 232 233 235 237 238 240 242 244 245 243 242 243 245 249 255 264 274 283 292 297 299 303 305 309 315 322 325 327 327 328 328 329 332 335 337 337
254 264 267 267 272 269 267 276 210 182 199 218 224 234 245 254 253 242 250 255 256 252 244 240 243 246 251 256 257 255 254 255 257 254 247 240 242 243 240 239 236 232 229 229 229 229 232 235 236 236 235 235 234 232 231 231 232 232 232 232 232 232 233 235 236 237 239 241 243 243 241 241 242 245 248 254 263 272 281 289 293 295 299 302 307 314 320 323 324 324 325 327 330 333 336 337 336
250 254 264 271 265 266 271 277 205 181 203 233 236 246 250 254 258 254 250 251 251 251 251 250 250 251 255 258 258 258 257 253 250 247 240 234 237 237 234 235 233 230 227 226 229 230 233 236 238 238 236 235 236 236 235 234 235 236 236 236 235 234 235 236 237 238 239 241 242 242 239 240 242 244 248 253 261 270 278 285 289 292 296 300 307 313 317 320 321 322 324 327 331 333 335 336 336
259 263 276 274 267 274 278 267 189 169 194 242 249 254 257 261 262 258 251 246 245 246 248 253 255 255 258 260 258 257 255 243 238 235 230 228 235 234 230 231 232 230 228 228 231 232 234 236 237 238 237 237 238 238 237 236 236 238 238 238 236 235 235 236 236 237 238 240 241 240 238 239 242 243 247 251 259 267 274 281 286 290 294 299 304 310 314 316 318 320 323 326 330 331 333 335 337
250 251 264 265 260 268 275 254 187 180 208 242 268 266 259 266 266 260 252 248 250 250 247 251 255 256 258 259 259 255 248 235 228 223 222 225 231 231 228 229 229 228 227 227 230 232 233 236 237 238 238 238 238 238 237 236 236 237 236 235 234 234 234 234 234 235 237 239 240 239 237 239 240 242 245 249 256 263 270 277 282 287 291 296 301 306 310 313 314 316 320 325 327 328 331 333 335
239 220 231 253 255 251 257 257 216 210 233 239 295 288 261 242 251 257 252 245 246 247 244 246 251 254 257 260 259 253 244 235 225 218 220 225 230 231 228 227 227 226 227 228 230 232 234 236 238 238 239 239 238 238 237 235 234 233 231 229 228 229 229 231 233 234 236 238 238 236 236 238 240 241 244 248 253 260 266 273 279 284 288 293 299 303 305 307 309 312 317 321 325 327 329 331 332
259 212 217 242 254 256 261 276 300 302 269 222 147 289 267 208 226 249 252 229 231 237 232 235 243 248 252 256 257 252 242 236 231 227 227 230 233 231 226 225 225 226 228 229 230 232 234 236 237 238 238 238 238 238 237 235 234 233 231 229 229 229 229 231 235 237 238 239 238 236 236 238 239 241 243 247 252 257 264 271 276 281 285 291 296 299 301 302 304 309 314 319 324 327 328 328 329
272 225 224 244 255 260 261 272 280 256 263 243 121 303 286 247 217 239 233 196 218 228 223 232 240 242 241 246 253 254 243 233 231 230 230 231 232 230 226 224 224 225 225 226 228 230 232 235 237 238 238 238 238 238 237 236 235 234 235 235 235 236 236 236 238 239 239 238 237 236 237 238 238 240 242 246 251 256 262 268 273 278 283 288 292 295 296 297 301 307 312 318 323 326 326 325 326
265 260 287 263 262 266 262 264 245 235 286 276 154 135 279 276 235 210 202 188 219 229 226 238 241 240 238 239 248 252 244 236 230 226 226 229 233 233 230 225 222 221 221 222 224 227 230 232 235 238 239 239 239 239 238 237 237 237 236 237 237 238 239 239 239 238 236 235 235 236 237 238 237 238 242 246 250 255 260 265 270 275 280 285 288 291 292 294 300 306 311 317 322 324 324 323 323
250 65 43 78 70 310 331 274 253 285 321 264 188 149 254 281 246 183 193 190 213 225 225 238 242 243 240 238 244 247 242 239 234 229 229 232 237 237 231 223 220 218 217 219 221 224 227 230 233 236 237 239 239 239 238 238 239 239 238 238 236 236 237 237 236 235 235 234 235 237 238 237 236 238 241 244 248 253 258 263 268 272 277 282 285 287 288 292 299 305 311 317 320 322 323 322 320
216 135 72 78 77 7 60 251 259 345 287 240 190 157 223 277 257 167 193 200 209 221 222 233 242 245 245 240 240 241 237 235 232 231 233 237 240 236 226 219 217 216 215 218 220 222 225 227 230 233 235 237 238 239 238 238 239 238 239 238 237 235 234 232 232 232 234 235 235 236 237 236 236 237 239 242 245 250 255 261 266 270 275 279 281 283 286 291 298 304 310 316 319 321 321 319 316
160 135 75 63 290 5 63 247 107 10 270 235 185 180 197 268 260 154 188 198 198 209 213 227 239 243 246 243 235 231 229 228 226 225 227 232 233 229 221 217 214 215 215 216 218 220 223 225 227 231 234 236 238 239 239 239 240 239 240 239 238 236 234 232 232 232 233 234 234 236 236 236 236 237 238 240 244 248 253 258 263 268 271 275 277 280 285 291 298 304 311 316 319 319 318 315 313
116 118 109 23 301 12 34 284 110 225 266 217 176 186 191 236 253 143 190 195 191 201 205 218 227 234 239 237 229 225 224 223 221 220 220 220 218 215 215 214 213 213 213 213 215 217 221 223 225 228 231 234 237 239 240 240 240 241 241 240 238 237 236 235 235 235 236 236 236 236 235 235 235 236 238 240 243 247 251 256 260 264 268 271 274 278 285 292 299 306 312 315 316 315 314 312 311
150 131 132 117 284 310 325 245 148 225 256 225 178 181 197 236 245 198 221 207 194 206 212 212 208 217 228 226 220 221 220 219 219 219 219 215 210 207 207 208 210 211 211 211 213 216 219 221 223 226 231 234 236 238 240 241 241 242 241 240 239 238 237 237 238 238 238 237 237 236 235 235 235 236 239 241 243 246 249 253 258 262 266 269 273 279 287 294 301 307 310 312 312 312 311 309 309
182 161 149 168 213 250 251 240 242 243 257 269 190 177 212 262 247 203 217 221 201 203 217 217 208 212 222 218 213 214 215 217 220 220 219 216 211 207 206 207 210 212 212 211 214 216 217 220 221 225 230 233 234 237 240 241 242 243 242 241 240 238 237 237 238 238 238 238 238 237 237 237 237 238 240 241 243 245 248 252 256 259 264 268 274 281 288 295 301 305 307 308 309 310 308 307 307
199 175 159 197 198 220 247 234 248 261 278 289 197 173 215 272 214 193 205 218 208 200 212 220 220 224 228 219 210 208 209 214 220 220 219 219 216 212 210 212 215 216 215 214 215 216 218 220 221 224 229 231 233 235 238 242 244 244 243 241 240 239 238 238 238 239 238 238 238 237 237 237 237 238 239 240 242 244 247 250 254 258 263 268 275 281 287 294 299 302 304 305 307 308 306 305 306
218 152 164 231 205 197 248 253 253 285 322 273 227 214 237 257 260 226 211 218 212 204 211 215 220 225 224 214 204 203 207 213 218 219 219 219 218 216 215 218 221 220 218 217 217 218 219 222 223 225 229 232 233 234 236 241 244 245 244 242 240 239 238 238 238 238 238 238 238 238 238 237 237 237 238 240 241 244 247 250 253 258 262 268 274 280 287 293 297 300 301 303 305 305 303 305 307
196 142 195 229 164 169 226 266 276 301 286 272 260 255 270 304 281 244 216 214 212 208 211 210 218 221 217 209 203 203 210 217 221 222 222 221 219 218 219 222 224 223 221 221 222 223 224 225 226 226 228 230 231 233 235 237 240 243 244 243 241 239 239 238 238 237 237 238 238 237 237 237 236 237 238 239 241 244 246 249 252 256 261 267 273 280 287 292 296 298 300 302 303 303 303 306 307
124 175 230 263 31 81 181 257 305 268 258 271 274 270 280 291 280 253 190 204 209 206 208 212 217 216 214 212 211 214 220 223 225 226 225 224 223 221 222 225 228 228 227 228 228 229 228 228 230 229 228 230 233 234 234 235 237 241 243 243 242 241 240 239 239 238 237 237 237 237 236 236 235 236 237 239 240 242 245 247 251 256 262 267 273 280 287 291 294 297 299 300 301 303 303 305 305
138 229 296 74 208 248 175 183 223 244 251 267 277 281 279 255 261 294 212 200 205 206 207 212 214 210 211 216 220 224 226 227 227 227 227 227 226 226 228 231 233 232 231 232 233 232 230 231 232 232 232 234 236 236 234 234 235 238 242 243 243 242 240 239 238 237 237 236 237 237 236 236 235 235 236 237 239 241 244 247 251 257 262 267 274 281 286 290 292 295 297 299 301 302 302 303 304
121 344 341 63 180 190 185 198 204 224 240 262 277 283 277 254 248 265 227 195 200 206 206 212 213 208 208 213 223 227 226 229 231 231 231 232 233 233 233 237 240 238 234 233 234 233 232 233 233 234 234 233 233 235 236 235 235 236 239 240 241 241 240 238 237 237 236 236 236 236 236 236 235 235 235 236 238 240 243 247 252 257 262 267 274 280 285 288 291 294 296 299 300 300 300 301 302
190 235 258 235 226 207 258 253 224 220 230 246 256 265 271 270 216 227 211 184 197 202 198 212 217 213 214 216 223 225 225 231 235 235 235 236 239 240 237 240 244 240 235 235 236 236 235 235 237 238 237 234 233 235 236 237 236 236 237 239 239 239 239 238 236 236 236 236 236 236 235 235 234 234 235 235 237 240 243 247 253 257 262 268 275 280 285 288 291 293 296 297 298 298 299 300 302
193 203 213 218 218 214 257 250 227 224 230 235 239 253 264 270 74 63 195 179 200 199 193 213 217 217 221 222 225 227 229 233 238 240 240 239 242 243 241 243 245 240 237 237 238 239 239 239 241 241 239 238 237 237 238 238 237 236 237 238 238 237 237 237 236 235 235 234 234 234 234 234 233 233 234 235 236 239 243 247 253 258 262 269 275 279 283 287 290 292 294 295 296 297 299 301 303